Regional Weather Roundup
Issued by NWS

Home | Current Version | Previous Version | Text Only | Print | Product List | Glossary On
Versions: 1 2 3 4 5 6 7 8 9 10 11 12 13 14 15 16 17 18 19 20 21 22 23 24 25 26 27 28
000
ASPQ40 PGUM 180912
RWRPQ
WEATHER ROUNDUP FOR THE MARIANAS AND MICRONESIA
NATIONAL WEATHER SERVICE TIYAN GU
700 PM CHST WED OCT 18 2017

GUZ001>004-181000-
MARIANA ISLANDS-

CITY           SKY/WX    TMP DP  RH WIND       PRES   REMARKS
GUAM AIRPORT   CLEAR     77  75  94 S6        29.80R
ANDERSEN AFB   CLOUDY    75  73  94 SW13      29.79S
ROTA AIRPORT   LGT RAIN  77  73  88 SW14G25   29.77R
TINIAN AP      LGT RAIN  79  77  94 SW15      29.71R
SAIPAN AP      TSTM      81  81 100 W12       29.72S HX  91

$$

PMZ161-181000-
REPUBLIC OF PALAU-

CITY           SKY/WX    TMP DP  RH WIND       PRES   REMARKS
KOROR AP       CLOUDY    84  77  79 SW18G30   29.63R HX  94
KOROR WSO      CLOUDY    86  72  62 S14       29.65R HX  92

$$

PMZ171>174-181000-
FEDERATED STATES OF MICRONESIA-

CITY           SKY/WX    TMP DP  RH WIND       PRES   REMARKS
YAP AIRPORT    TSTM      81  75  83 S16G28    29.68R
CHUUK AP       MOCLDY    82  77  83 N8        29.78R HX  91
POHNPEI AP     CLOUDY    79  77  94 SE3       29.78S
POHNPEI WSO    CLOUDY    77  77 100 S3        29.82R
KOSRAE AP      NOT AVBL

$$

PMZ181-181000-
REPUBLIC OF THE MARSHALL ISLANDS-

CITY           SKY/WX    TMP DP  RH WIND       PRES   REMARKS
KWAJALEIN AP   PTCLDY    82  75  78 W3        29.82R
MAJURO AP      NOT AVBL
MAJURO WSO     CLOUDY    81  75  83 W6        29.80R

$$





USA.gov is the U.S. government's official web portal to all federal, state and local government web resources and services.